Tracking 31027 objects as of 19-Jul-2025
HD Live streaming from Space Station
objects crossing your sky now

OV1-9

Track OV1-9 now!
10-day predictions
OV1-9 is classified as:


NORAD ID: 2610
Int'l Code: 1966-111A
Perigee: 481.2 km
Apogee: 4,515.7 km
Inclination: 99.1 °
Period: 138.5 minutes
Semi major axis: 8869 km
RCS: 0.6636 m2 (medium)
Launch date: December 11, 1966
Source: United States (US)
Launch site: AIR FORCE WESTERN TEST RANGE (AFWTR)
Your satellite tracking list
SL-8 R/B
Track 1 satellite(s)




NASA's NSSDC Master Catalog

Two Line Element Set (TLE):
1 02610U 66111A   25199.45311353  .00000289  00000-0  12096-3 0  9995
2 02610  99.1022 151.5526 2274410 167.6205 199.2010 10.39340765198352
Source of the keplerian elements: AFSPC